Location: Long Barn
(38.0930°N, 120.1344°W)
Time: 18:35:18
(UTC+00:00)

Cosmos 1484 Rocket - Pass Details

Date: 05 August 2024
Orbit: 474 x 515 km, 97.6° (Epoch: 12 September)

Event Time Altitude Azimuth Distance (km) Brightness Sun altitude
Rises 12:24:47 0° 14° (NNE) 2,533 6.9 -8.4°
Reaches altitude 10° 12:26:51 10° 17° (NNE) 1,649 6.0 -8.0°
Maximum altitude 12:30:22 68° 101° (E) 516 2.9 -7.4°
Drops below altitude 10° 12:33:52 10° 185° (S) 1,640 4.9 -6.8°
Sets 12:35:56 0° 188° (S) 2,518 5.9 -6.5°
